"Pseudo-MPEC" for CARD822

Created 2024 Sep 5 15:22:14 UT using Find_Orb

Click here for an explanation of pseudo-MPECs

 
 Astrometry: 
     CARD822  C2024 08 07.55550900 58 25.135+12 24 17.24   ~95Cq 22.32wXNEOCPF52
     CARD822  C2024 08 07.56745700 58 25.434+12 24 40.89   ~95Cq 21.71wXNEOCPF52
     CARD822  C2024 08 07.57944400 58 25.725+12 25 04.56   ~95Cq 21.60wXNEOCPF52
     CARD822  C2024 08 18.46328101 01 33.929+18 50 59.79   ~95D7 21.83GVNEOCPF52
     CARD822  C2024 08 18.47316101 01 33.950+18 51 22.77   ~95D7 22.16GVNEOCPF52
     CARD822  C2024 08 18.48303701 01 33.991+18 51 45.93   ~95D7 22.08GVNEOCPF52
     CARD822  C2024 08 18.49296001 01 34.004+18 52 08.29   ~95D7 21.83GVNEOCPF52
     CARD822*1C2024 09 05.31957000 55 00.217+31 15 14.51   ~958b 20.55GVNEOCPG96
     CARD822 1C2024 09 05.32477900 54 59.911+31 15 28.26   ~958b 20.72GVNEOCPG96
     CARD822 1C2024 09 05.32999200 54 59.598+31 15 42.44   ~958b 20.70GVNEOCPG96
     CARD822 1C2024 09 05.33519200 54 59.342+31 15 56.45   ~958b 20.93GVNEOCPG96
     CARD822 KB2024 09 05.38160 00 54 56.378+31 17 58.81   ~959q 20.5 GVNEOCP734
     CARD822 KB2024 09 05.38882 00 54 55.946+31 18 18.04   ~959q 20.8 GVNEOCP734
     CARD822 KC2024 09 05.42002300 54 54.241+31 19 42.13   ~95Ab 21.34GVNEOCPI52
     CARD822 KC2024 09 05.42182800 54 54.176+31 19 47.42   ~95Ab 20.42GVNEOCPI52
     CARD822 KC2024 09 05.42363800 54 54.094+31 19 52.50   ~95Ab 20.29GVNEOCPI52
     CARD822 KC2024 09 05.42545100 54 53.982+31 19 56.96   ~95Ab 20.69GVNEOCPI52

Station data:
(734) Farpoint Observatory, Eskridge  (N38.890239 W96.002420)  US/Kansas.
   Observer G. Hug. 0.69-m reflector + CCD.
(F52) Pan-STARRS 2, Haleakala  (N20.707382 W156.255910)  US/Hawaii.
   Observers J. Bulger, T. Dukes, T. Lowe, A. Schultz, M. Willman. Measurers
   K. Chambers, S. Chastel, T. de Boer, L. Denneau, J. Fairlamb, H.
   Flewelling, M. Huber, C.-C. Lin, E. Magnier, Y. Ramanjooloo, R. Wainscoat,
   R. Weryk. 1.8-m Ritchey-Chrétien + CCD.
(G96) Mt. Lemmon Survey  (N32.442729 W110.788720)  US/Arizona.  Observer E.
   J. Christensen. 1.5-m reflector + 10K CCD.
(I52) Steward Observatory, Mt. Lemmon Station  (N32.442570 W110.788920)
   US/Arizona.  Observers T. A. Pruyne, B. M. Africano, E. J. Christensen, G.
   A. Farneth, D. C. Fuls, A. R. Gibbs, A. D. Grauer, H. Gröller, J. A.
   Johnson, R. A. Kowalski, S. M. Larson, G. J. Leonard, D. Rankin, R. L.
   Seaman, F. C. Shelly, K. W. Wierzchoś. 1.0-m prime focus + CCD.

Orbital elements:  CARD822
   Perihelion 2024 Nov 10.24098 +/- 0.00909 TT =  5:47:00 (JD 2460624.74098)
Epoch 2024 Sep  5.0 TT = JDT 2460558.5   Earth MOID: 0.6288      AutoNEOCP
M 344.03474382 +/- 0.006            (J2000 ecliptic)
n   0.24101781 +/- 7.01e-5          Peri.   62.93168 +/- 0.006
a   2.55723098 +/- 0.000496         Node   340.10185 +/- 0.0015
e   0.4215339 +/- 8.98e-5           Incl.   28.77701 +/- 0.0019
P   4.08936                H 19.56  G  0.15   U  6.3
q 1.47927121 +/- 6.13e-5    Q 3.63519075 +/- 0.000934
From 17 observations 2024 Aug. 7-Sept. 5; mean residual 0".23
Residuals in arcseconds: 
240807 F52  .02+  .01+    240818 F52  .23+  .06+    240905 734  .07-  .05+    
240807 F52  .04+  .02+    240905 G96  .02+  .01-    240905 I52  .65-  .42-    
240807 F52  .06-  .03-    240905 G96  .00   .21-    240905 I52  .11-  .08+    
240818 F52  .26-  .42-    240905 G96  .10-  .02+    240905 I52  .21+  .35+    
240818 F52  .18-  .09-    240905 G96  .53+  .12+    240905 I52  .15+  .01-    
240818 F52  .21+  .44+    240905 734  .04+  .00     

Ephemerides (geocentric):
Date (UTC) HH   RA             Dec           delta  r     elong  mag " sig PA
---- --------  ------------   ------------  ------ ------ -----  --- --------
2024 09 05 15  00 54 43.238   +31 28 49.19  .72661 1.5938 132.8 21.1 .070  85
2024 09 05 16  00 54 40.938   +31 30 40.29  .72636 1.5936 132.8 21.1 .071  85
2024 09 05 17  00 54 38.630   +31 32 31.41  .72611 1.5935 132.9 21.1 .072  85
2024 09 05 18  00 54 36.316   +31 34 22.55  .72586 1.5934 132.9 21.1 .073  85
2024 09 05 19  00 54 33.995   +31 36 13.70  .72562 1.5932 132.9 21.1 .075  85
2024 09 05 20  00 54 31.666   +31 38 04.86  .72537 1.5931 132.9 21.1 .076  85
2024 09 05 21  00 54 29.330   +31 39 56.03  .72512 1.5930 132.9 21.1 .077  85
2024 09 05 22  00 54 26.987   +31 41 47.22  .72487 1.5928 132.9 21.1 .078  85
2024 09 05 23  00 54 24.636   +31 43 38.42  .72463 1.5927 132.9 21.1 .079  85
2024 09 06 00  00 54 22.279   +31 45 29.64  .72438 1.5926 133.0 21.1 .080  85
2024 09 06 01  00 54 19.914   +31 47 20.86  .72414 1.5924 133.0 21.1 .081  85
2024 09 06 02  00 54 17.542   +31 49 12.10  .72389 1.5923 133.0 21.1 .082  85
2024 09 06 03  00 54 15.163   +31 51 03.36  .72365 1.5921 133.0 21.1 .084  85
2024 09 06 04  00 54 12.777   +31 52 54.62  .72340 1.5920 133.0 21.1 .085  85
2024 09 06 05  00 54 10.383   +31 54 45.90  .72316 1.5919 133.0 21.1 .086  85
2024 09 06 06  00 54 07.983   +31 56 37.19  .72291 1.5917 133.1 21.1 .087  85
2024 09 06 07  00 54 05.575   +31 58 28.49  .72267 1.5916 133.1 21.1 .088  85
2024 09 06 08  00 54 03.159   +32 00 19.80  .72243 1.5915 133.1 21.1 .089  85
2024 09 06 09  00 54 00.737   +32 02 11.13  .72219 1.5913 133.1 21.1 .091  85
2024 09 06 10  00 53 58.307   +32 04 02.46  .72194 1.5912 133.1 21.1 .092  85
2024 09 06 11  00 53 55.870   +32 05 53.81  .72170 1.5911 133.1 21.1 .093  85
2024 09 06 12  00 53 53.426   +32 07 45.17  .72146 1.5909 133.2 21.1 .094  85
2024 09 06 13  00 53 50.974   +32 09 36.54  .72122 1.5908 133.2 21.1 .095  85
2024 09 06 14  00 53 48.515   +32 11 27.92  .72098 1.5907 133.2 21.1 .096  85
2024 09 06 15  00 53 46.049   +32 13 19.31  .72074 1.5905 133.2 21.1 .098  85
2024 09 06 16  00 53 43.576   +32 15 10.71  .72050 1.5904 133.2 21.1 .099  85
2024 09 06 17  00 53 41.095   +32 17 02.12  .72026 1.5903 133.2 21.1 .100  85
2024 09 06 18  00 53 38.607   +32 18 53.55  .72002 1.5901 133.2 21.1 .101  85
2024 09 06 19  00 53 36.111   +32 20 44.98  .71978 1.5900 133.3 21.1 .102  85
2024 09 06 20  00 53 33.609   +32 22 36.42  .71954 1.5899 133.3 21.1 .104  85
2024 09 06 21  00 53 31.099   +32 24 27.87  .71931 1.5897 133.3 21.1 .105  85
2024 09 06 22  00 53 28.581   +32 26 19.33  .71907 1.5896 133.3 21.1 .106  85
2024 09 06 23  00 53 26.057   +32 28 10.80  .71883 1.5895 133.3 21.1 .107  85
2024 09 07 00  00 53 23.525   +32 30 02.28  .71860 1.5893 133.3 21.1 .108  85
2024 09 07 01  00 53 20.985   +32 31 53.77  .71836 1.5892 133.3 21.1 .110  85
2024 09 07 02  00 53 18.439   +32 33 45.27  .71812 1.5891 133.4 21.1 .111  85
2024 09 07 03  00 53 15.885   +32 35 36.77  .71789 1.5889 133.4 21.1 .112  85
2024 09 07 04  00 53 13.323   +32 37 28.29  .71765 1.5888 133.4 21.1 .113  85
2024 09 07 05  00 53 10.755   +32 39 19.81  .71742 1.5887 133.4 21.1 .115  85
2024 09 07 06  00 53 08.178   +32 41 11.34  .71718 1.5885 133.4 21.1 .116  85
2024 09 07 07  00 53 05.595   +32 43 02.88  .71695 1.5884 133.4 21.1 .117  85
2024 09 07 08  00 53 03.004   +32 44 54.43  .71672 1.5883 133.5 21.1 .118  85
2024 09 07 09  00 53 00.406   +32 46 45.98  .71648 1.5881 133.5 21.1 .120  85
2024 09 07 10  00 52 57.800   +32 48 37.55  .71625 1.5880 133.5 21.1 .121  85
2024 09 07 11  00 52 55.187   +32 50 29.12  .71602 1.5879 133.5 21.1 .122  85
2024 09 07 12  00 52 52.567   +32 52 20.69  .71579 1.5877 133.5 21.1 .123  85
2024 09 07 13  00 52 49.939   +32 54 12.28  .71556 1.5876 133.5 21.1 .125  85
2024 09 07 14  00 52 47.304   +32 56 03.87  .71533 1.5875 133.5 21.1 .126  85